Simultaneous Nadir Overpasses (SNOs) Predictions

Prediction of SNOs between NOAA-20 and TERRA Satellite Orbit:

Table of predicted SNOs for the next 14.0 days since TLE Epoch: 12/6/2024
Index Date (NOAA-20) Time (NOAA-20) Lat,Lon (NOAA-20) SZA (NOAA-20 ) Date (TERRA) Time (TERRA) Lat,Lon (TERRA) SZA (TERRA ) Distance(km) Time Diff (sec)
1 12/08/2024 03:14:38 -72.97, -57.68 84.25 12/08/2024 03:15:17 -72.97, -57.59 84.27 3.02 39
2 12/08/2024 04:05:22 72.88, 109.83 95.65 12/08/2024 04:04:39 72.85, 109.85 95.63 3.33 43
3 12/10/2024 14:26:58 -72.95, 134.28 84.04 12/10/2024 14:27:22 -72.96, 134.34 84.03 2.51 24
4 12/10/2024 15:17:42 72.86, -58.22 95.87 12/10/2024 15:16:44 72.84, -58.23 95.86 2.73 58
5 12/13/2024 00:48:48 73.65, 157.32 96.91 12/13/2024 00:49:55 73.51, 159.71 96.68 76.37 67
6 12/
